This demonstration page uses our WeatherBlox Daily Observations layout. Learn more.

Left ArrowRight Arrow

-33.86785, 151.20732

Hourly Observations for May 30, 2023

Temp ( °F °C ) Dew Point ( °F °C ) Humidity (%) Winds ( mph kmh ) Pressure ( in mb ) Visibility ( mi km ) Precip ( " mm )
12:00 am 00:00 Mostly Clear 54 12 41 5 62 62 W 8 13 30.15 1021 6 10 0.00 0.00
12:30 am 00:30 Mostly Clear 54 12 41 5 62 62 WNW 9 15 30.15 1021 6 10 0.00 0.00
1:00 am 01:00 Mostly Clear 54 12 43 6 67 67 WNW 9 15 30.15 1021 6 10 0.00 0.00
1:30 am 01:30 Mostly Clear 54 12 41 5 62 62 W 9 15 30.12 1020 6 10 0.00 0.00
2:00 am 02:00 Mostly Clear 52 11 43 6 71 71 NNW 8 13 30.12 1020 6 10 0.00 0.00
2:30 am 02:30 Mostly Clear 52 11 43 6 71 71 NW 5 7 30.12 1020 6 10 0.00 0.00
3:00 am 03:00 Mostly Clear 50 10 41 5 71 71 NW 7 11 30.12 1020 6 10 0.00 0.00
3:30 am 03:30 Mostly Clear 52 11 43 6 71 71 WNW 9 15 30.12 1020 6 10 0.00 0.00
4:00 am 04:00 Mostly Clear 52 11 41 5 66 66 WNW 7 11 30.12 1020 6 10 0.00 0.00
4:30 am 04:30 Mostly Clear 52 11 41 5 66 66 WNW 9 15 30.15 1021 6 10 0.00 0.00
5:00 am 05:00 Mostly Clear 50 10 41 5 71 71 W 12 19 30.15 1021 6 10 0.00 0.00
5:30 am 05:30 Mostly Clear 50 10 41 5 71 71 WNW 12 19 30.15 1021 6 10 0.00 0.00
6:00 am 06:00 Mostly Clear 52 11 41 5 66 66 WNW 10 17 30.18 1022 6 10 0.00 0.00
6:30 am 06:30 Mostly Clear 52 11 41 5 66 66 NW 12 19 30.18 1022 6 10 0.00 0.00
7:00 am 07:00 Mostly Sunny 52 11 43 6 71 71 NW 10 17 30.18 1022 6 10 0.00 0.00
7:30 am 07:30 Mostly Sunny 54 12 43 6 67 67 W 10 17 30.18 1022 6 10 0.00 0.00
8:00 am 08:00 Mostly Sunny 54 12 43 6 67 67 W 12 19 30.21 1023 6 10 0.00 0.00
8:30 am 08:30 Mostly Sunny 55 13 43 6 62 62 NW 10 17 30.21 1023 6 10 0.00 0.00
9:00 am 09:00 Mostly Sunny 57 14 43 6 58 58 WNW 10 17 30.21 1023 6 10 0.00 0.00
9:30 am 09:30 Mostly Sunny 59 15 43 6 55 55 WNW 10 17 30.21 1023 6 10 0.00 0.00
10:00 am 10:00 Mostly Sunny 61 16 43 6 51 51 NW 12 19 30.21 1023 6 10 0.00 0.00
10:30 am 10:30 Mostly Sunny 63 17 43 6 48 48 WNW 10 17 30.21 1023 6 10 0.00 0.00
11:00 am 11:00 Mostly Sunny 64 18 43 6 45 45 W 13 20 30.21 1023 6 10 0.00 0.00
11:30 am 11:30 Mostly Sunny 66 19 45 7 46 46 W 14 22 30.18 1022 6 10 0.00 0.00
12:00 pm 12:00 Mostly Sunny 66 19 45 7 46 46 W 15 24 30.18 1022 6 10 0.00 0.00
12:30 pm 12:30 Mostly Sunny 68 20 46 8 46 46 W 15 24 30.15 1021 6 10 0.00 0.00
1:00 pm 13:00 Mostly Sunny 68 20 45 7 43 43 W 15 24 30.12 1020 6 10 0.00 0.00
1:30 pm 13:30 Mostly Sunny 70 21 45 7 40 40 WSW 14 22 30.12 1020 6 10 0.00 0.00
2:00 pm 14:00 Mostly Sunny 72 22 45 7 38 38 W 12 19 30.12 1020 6 10 0.00 0.00
2:30 pm 14:30 Mostly Sunny 70 21 46 8 43 43 W 16 26 30.12 1020 6 10 0.00 0.00
3:00 pm 15:00 Mostly Sunny 70 21 45 7 40 40 W 14 22 30.09 1019 6 10 0.00 0.00
3:30 pm 15:30 Mostly Sunny 70 21 45 7 40 40 W 15 24 30.12 1020 6 10 0.00 0.00
4:00 pm 16:00 Mostly Sunny 68 20 45 7 43 43 W 13 20 30.12 1020 6 10 0.00 0.00
4:30 pm 16:30 Mostly Sunny 66 19 45 7 46 46 W 10 17 30.09 1019 6 10 0.00 0.00
5:00 pm 17:00 Mostly Clear 66 19 46 8 49 49 W 10 17 30.12 1020 6 10 0.00 0.00
5:30 pm 17:30 Mostly Clear 64 18 46 8 52 52 W 10 17 30.12 1020 6 10 0.00 0.00
6:00 pm 18:00 Clear 63 17 46 8 55 55 WSW 10 17 30.12 1020 6 10 0.00 0.00
6:30 pm 18:30 Clear 63 17 46 8 55 55 W 12 19 30.15 1021 6 10 0.00 0.00
7:00 pm 19:00 Clear 63 17 46 8 55 55 W 12 19 30.15 1021 6 10 0.00 0.00
7:30 pm 19:30 Mostly Clear 61 16 46 8 59 59 W 13 20 30.15 1021 6 10 0.00 0.00
8:00 pm 20:00 Mostly Clear 63 17 46 8 55 55 W 12 19 30.15 1021 6 10 0.00 0.00
8:30 pm 20:30 Mostly Clear 61 16 46 8 59 59 W 10 17 30.15 1021 6 10 0.00 0.00
9:00 pm 21:00 Mostly Clear 61 16 46 8 59 59 WNW 8 13 30.15 1021 6 10 0.00 0.00
10:00 pm 22:00 Mostly Clear 59 15 46 8 63 63 W 8 13 30.15 1021 6 10 0.00 0.00
10:30 pm 22:30 Mostly Clear 59 15 46 8 63 63 WNW 7 11 30.15 1021 6 10 0.00 0.00
11:00 pm 23:00 Mostly Clear 57 14 46 8 67 67 NNW 2 4 30.15 1021 6 10 0.00 0.00
11:30 pm 23:30 Mostly Clear 57 14 46 8 67 67 W 7 11 30.12 1020 6 10 0.00 0.00

Powered by Vaisala Xweather